Location: Unspecified
(0.0000°N, 0.0000°E)
Time: 07:12:31
(UTC+00:00)

Courier 1B Rocket - All Passes

Search period start: 08 February 2023 00:00
Search period end: 18 February 2023 00:00
Orbit: 920 x 1202 km, 28.2° (Epoch: 07 February)

Date Brightness Start Highest point End Pass type
(mag) Time Alt. Az. Time Alt. Az. Time Alt. Az.
08 Feb - 00:50:07 10° WSW 00:55:23 23° SSW 01:00:59 10° SSE night (unlit)
08 Feb - 06:41:43 10° S 06:43:08 10° SSE 06:44:33 10° SSE daylight
08 Feb - 08:31:34 10° SSW 08:38:08 29° SSE 08:44:27 10° E daylight
08 Feb - 10:24:30 10° WSW 10:32:08 89° NNW 10:39:15 10° ENE daylight
08 Feb - 12:20:00 10° W 12:25:52 26° NNW 12:31:25 10° NNE daylight
08 Feb - 20:02:19 10° NNW 20:06:43 20° NNE 20:11:13 10° ENE visible
08 Feb - 21:53:55 10° NW 22:00:18 73° NNE 22:07:08 10° ESE night (unlit)
08 Feb - 23:48:06 10° W 23:53:58 32° SSW 00:00:15 10° SE night (unlit)
09 Feb - 01:46:50 10° SSW 01:48:40 11° SSW 01:50:31 10° S visible
09 Feb - 07:30:54 10° SSW 07:36:32 21° SSE 07:42:03 10° ESE daylight
09 Feb - 09:23:09 10° SW 09:30:49 63° SSE 09:38:02 10° ENE daylight
09 Feb - 11:17:40 10° W 11:24:34 40° NNW 11:31:02 10° NE daylight
09 Feb - 13:16:27 10° NW 13:18:44 12° NNW 13:20:58 10° N daylight
09 Feb - 19:02:47 10° N 19:05:23 13° NNE 19:08:00 10° NE visible
09 Feb - 20:53:12 10° NW 20:59:12 47° NNE 21:05:32 10° ESE visible
09 Feb - 22:46:30 10° WNW 22:52:41 47° SSW 22:59:20 10° SE night (unlit)
10 Feb - 00:43:10 10° SW 00:46:56 15° SSW 00:50:51 10° SSE night (unlit)
10 Feb - 06:30:34 10° SSW 06:34:48 15° SSE 06:39:00 10° SE daylight
10 Feb - 08:22:03 10° SW 08:29:24 44° SSE 08:36:28 10° E daylight
10 Feb - 10:15:43 10° WSW 10:23:16 60° NNW 10:30:21 10° NE daylight
10 Feb - 12:12:30 10° WNW 12:17:13 18° NNW 12:21:45 10° NNE daylight
10 Feb - 19:52:43 10° NNW 19:58:06 30° NNE 20:03:37 10° E visible
10 Feb - 21:45:13 10° WNW 21:51:32 72° SSW 21:58:16 10° SE visible
10 Feb - 23:40:33 10° WSW 23:45:24 21° SSW 23:50:30 10° SSE night (unlit)
11 Feb - 05:31:15 10° S 05:32:57 11° SSE 05:34:38 10° SSE visible
11 Feb - 07:21:10 10° SSW 07:27:54 31° SSE 07:34:29 10° E daylight
11 Feb - 09:14:05 10° WSW 09:21:56 88° NNW 09:29:22 10° ENE daylight
11 Feb - 11:09:37 10° W 11:15:47 27° NNW 11:21:40 10° NNE daylight
11 Feb - 18:52:31 10° NNW 18:56:54 20° NNE 19:01:19 10° ENE visible
11 Feb - 20:44:14 10° NW 20:50:28 75° NNE 20:57:00 10° ESE visible
11 Feb - 22:38:31 10° W 22:44:03 30° SSW 22:49:54 10° SSE night (unlit)
12 Feb - 06:20:34 10° SSW 06:26:18 22° SSE 06:32:00 10° ESE daylight
12 Feb - 08:12:46 10° SW 08:20:33 65° SSE 08:28:04 10° ENE daylight
12 Feb - 10:07:17 10° W 10:14:24 40° NNW 10:21:11 10° NE daylight
12 Feb - 12:05:53 10° NW 12:08:43 12° NNW 12:11:30 10° N daylight
12 Feb - 17:52:51 10° N 17:55:34 13° NNE 17:58:18 10° NE daylight
12 Feb - 19:43:27 10° NW 19:49:25 47° NNE 19:55:31 10° ESE visible
12 Feb - 21:36:52 10° W 21:42:50 44° SSW 21:49:06 10° SE visible
12 Feb - 23:33:49 10° SW 23:36:58 14° SSW 23:40:14 10° S night (unlit)
13 Feb - 05:20:21 10° SSW 05:24:35 15° SSE 05:28:52 10° SE visible
13 Feb - 07:11:42 10° SW 07:19:07 45° SSE 07:26:26 10° E daylight
13 Feb - 09:05:21 10° WSW 09:13:02 60° NNW 09:20:25 10° NE daylight
13 Feb - 11:02:06 10° WNW 11:07:08 19° NNW 11:12:00 10° NNE daylight
13 Feb - 18:42:54 10° NNW 18:48:19 30° NNE 18:53:45 10° E visible
13 Feb - 20:35:32 10° WNW 20:41:44 69° SSW 20:48:10 10° SE visible
13 Feb - 22:31:03 10° WSW 22:35:30 19° SSW 22:40:08 10° SSE night (unlit)
14 Feb - 04:21:20 10° S 04:22:46 11° SSE 04:24:13 10° SSE visible
14 Feb - 06:10:54 10° SSW 06:17:37 31° SSE 06:24:21 10° E daylight
14 Feb - 08:03:46 10° WSW 08:11:39 86° NNW 08:19:21 10° ENE daylight
14 Feb - 09:59:14 10° W 10:05:37 28° NNW 10:11:47 10° NNE daylight
14 Feb - 17:42:35 10° NNW 17:47:07 20° NNE 17:51:35 10° ENE daylight
14 Feb - 19:34:27 10° NW 19:40:42 77° NNE 19:47:01 10° ESE visible
14 Feb - 21:28:54 10° W 21:34:12 28° SSW 21:39:41 10° SSE visible
15 Feb - 05:10:24 10° SSW 05:16:03 22° SSE 05:21:47 10° ESE visible
15 Feb - 07:02:29 10° SW 07:10:15 67° SSE 07:17:58 10° ENE daylight
15 Feb - 08:56:56 10° W 09:04:10 40° NNW 09:11:12 10° NE daylight
15 Feb - 10:55:21 10° NW 10:58:38 13° NNW 11:01:51 10° N daylight
15 Feb - 16:42:39 10° N 16:45:45 14° NNE 16:48:48 10° NE daylight
15 Feb - 18:33:36 10° NW 18:39:39 49° NNE 18:45:39 10° ESE visible
15 Feb - 20:27:11 10° W 20:33:02 42° SSW 20:39:03 10° SE visible
15 Feb - 22:24:32 10° SW 22:27:06 12° SSW 22:29:41 10° S night (unlit)
16 Feb - 04:10:20 10° S 04:14:24 15° SSE 04:18:32 10° SE visible
16 Feb - 06:01:30 10° SW 06:08:48 46° SSE 06:16:14 10° E daylight
16 Feb - 07:55:03 10° WSW 08:02:44 59° NNW 08:10:20 10° NE daylight
16 Feb - 09:51:43 10° WNW 09:56:58 19° NNW 10:02:05 10° NNE daylight
16 Feb - 17:32:56 10° NNW 17:38:32 32° NNE 17:44:01 10° E daylight
16 Feb - 19:25:46 10° WNW 19:31:58 67° SSW 19:38:13 10° SE visible
16 Feb - 21:21:32 10° WSW 21:25:40 18° SSW 21:29:54 10° SSE visible
17 Feb - 03:12:19 10° SSE 03:12:38 10° SSE 03:12:57 10° SSE visible
17 Feb - 05:00:47 10° SSW 05:07:21 31° SSE 05:14:05 10° E visible
17 Feb - 06:53:32 10° WSW 07:01:19 85° NNW 07:09:11 10° ENE daylight
17 Feb - 08:48:55 10° W 08:55:23 28° NNW 09:01:44 10° NNE daylight
17 Feb - 16:32:28 10° NNW 16:37:18 21° NNE 16:41:59 10° ENE daylight
17 Feb - 18:24:35 10° NW 18:30:57 79° NNE 18:37:11 10° ESE visible
17 Feb - 20:19:14 10° W 20:24:24 27° SSW 20:29:38 10° SSE visible
